VABBVAAH

Guest
Details From VABB - Bombay Mumbai Chhatrapati Shivaji Intl
To VAAH - AHMEDABAD
Flight Number -
Tags decoded
Created
Modified
Stats Distance 240 nm / 444 km
Max Altitude 0 ft / 0 m
Waypoints 2
Social Downloads 1
Likes 0
Share VATSIM

Download

Looking for another format? Having issues loading an existing format? Contact us
Advertisement - Login to hide

Notes

Requested: VABB SUR VAAH

Route

VABB VAAH

ID Type Via Altitude Latitude Longitude Leg Dist Tot Dist Heading (true) Name
O VABB APT - 0 ft / 0 m 19.08898˚ 72.86591˚ - 0 nm - Bombay Mumbai Chhatrapati Shivaji Intl
O VAAH APT - 0 ft / 0 m 23.07720˚ 72.63463˚ 239 nm 239 nm 357° / 357° AHMEDABAD

Altitude Profile

Advertisement - Login to hide

Weather


0- 5 10 15 20 25 30 35+ Temperature / ° C

Clouds and Precipitation
Forecast for 2018-05-26 18:00 UTC. Updated 3 hours ago

Ground ~20,000 ft ~40,000 ft Winds

VABB

Details ICAO VABB (BOM)
Name Bombay Mumbai Chhatrapati Shivaji Intl
Region India
Timezone Asia/Kolkata (UTC+5.5)
Stats Elevation 37 ft / 11 m (AMSL)
Location 19.088978° 72.865914°
Runways 2
Magnetic Variation 0.146° W

METAR

VABB 262000Z 31006KT 3800 HZ SCT020 31/26 Q1003 NOSIG

Decode

TAF

TAF VABB 261700Z 2618/2724 29008KT 4000 HZ FEW020 SCT025 BECMG 2621/2623 3000 HZ BECMG 2703/2705 5000 HZ BECMG 2708/2710 28008G18KT BECMG 2713/2715 28008KT BECMG 2721/2723 3000 HZ

Decode

Departure Runways

ID Width Length Bearing (true) Bearing (mag) Surface Threshold Offset Overrun Length
09 148 ft / 45 m 11,436 ft / 3,486 m 89.16° 89.31° Asphalt 465 ft / 142 m 0 ft / 0 m
14 150 ft / 46 m 9,606 ft / 2,928 m 134.33° 134.48° Asphalt 1,338 ft / 408 m 223 ft / 68 m
27 148 ft / 45 m 11,436 ft / 3,486 m 269.17° 269.32° Asphalt 1,581 ft / 482 m 0 ft / 0 m
32 150 ft / 46 m 9,606 ft / 2,928 m 314.34° 314.49° Asphalt 853 ft / 260 m 0 ft / 0 m

VAAH

Details ICAO VAAH (AMD)
Name AHMEDABAD
Region India
Timezone Asia/Kolkata (UTC+5.5)
Stats Elevation 189 ft / 58 m (AMSL)
Location 23.077196° 72.634632°
Runways 1
Magnetic Variation 0.507° E

METAR

VAAH 262000Z 28006KT 4000 FU NSC 35/24 Q1001 NOSIG

Decode

TAF

TAF VAAH 261700Z 2618/2724 27006KT 4000 FU NSC BECMG 2701/2703 25005KT 3000 HZ BECMG 2704/2706 28006KT 6000 BECMG 2712/2714 27006KT 4000 FU

Decode

Destination Runways

ID Width Length Bearing (true) Bearing (mag) Surface Threshold Offset Overrun Length
05 150 ft / 46 m 11,464 ft / 3,494 m 44.55° 44.04° Asphalt 0 ft / 0 m 210 ft / 64 m
23 150 ft / 46 m 11,464 ft / 3,494 m 224.56° 224.05° Asphalt 0 ft / 0 m 195 ft / 59 m

Approach Navaids

Runway Type Ident Frequency Range Bearing (true) Bearing (mag) Slope Elevation
23 Localiser AHD 110.30 MHz 18 nm / 33 km 224.70° 224.19° - 180 ft / 55 m (AMSL)
23 Glidescope AHD 110.30 MHz 10 nm / 19 km 224.56° 224.05° 3.00° 186 ft / 57 m (AMSL)
23 DME AHD 110.30 MHz 18 nm / 33 km - - - 180 ft / 55 m (AMSL)

Popular Alternatives